Tracking 29606 objects as of 18-Sep-2024
HD Live streaming from Space Station
objects crossing your sky now

THORAD AGENA D DEB

Track THORAD AGENA D DEB now!
10-day predictions


NORAD ID: 20360
Int'l Code: 1970-025QF
Perigee: 877.2 km
Apogee: 912.6 km
Inclination: 100.4 °
Period: 102.7 minutes
Semi major axis: 7265 km
RCS: 0.0096 m2 (small)
Launch date: April 8, 1970
Source: United States (US)
Launch site: AIR FORCE WESTERN TEST RANGE (AFWTR)

Note: This is SATELLITE DEBRIS
Your satellite tracking list
Your tracking list is empty




NASA's NSSDC Master Catalog

Two Line Element Set (TLE):
1 20360U 70025QF  24259.50979772  .00018389  00000-0  12090-1 0  9995
2 20360 100.4160 104.6515 0024405 129.4522 296.7299 14.01739380742291
Source of the keplerian elements: AFSPC